[[{"header":{"parameterUnit":"m.s-1","parameterCategory":1,"la1":30.2991,"la2":30.254,"lo1":-89.0895,"lo2":-89.0444,"dx":0.0017,"dy":0.0017,"nx":28,"ny":28,"refTime":"2022-11-21T15:00:00:Z","depth":0,"parameterNumber":2,"parameterNumberName":"U-component_of_WINDS"},"data":[0,0,0,0,0,0,0,0,0,0,0,0,0,0,0,0,0,0,0,0,0,0,0,0,0,0,0,0,0,0,0,0,0,0,0,0,0,0,0,0,0,0,0,0,0,0,0,0,0,0,0,0,0,0,0,0,0,0,-2.5366,-2.5367,0,-2.5464,-2.5465,-2.5466,-2.5382,-2.5378,-2.5375,-2.5371,-2.5475,-2.5481,-2.5487,0,0,0,0,0,0,0,0,0,0,0,0,0,-2.5107,-2.5112,-2.5366,-2.5367,-2.5368,-2.5464,-2.5465,-2.5467,-2.5382,-2.5378,-2.5374,-2.537,-2.5473,-2.548,-2.5487,0,0,0,0,0,0,0,0,0,0,0,0,0,-2.5214,-2.5114,-2.5366,-2.5338,-2.5336,-2.5464,-2.5465,-2.5467,-2.5383,-2.5378,-2.5372,-2.5368,-2.547,-2.5479,-2.5488,-2.5649,0,0,-2.5516,-2.552,0,0,0,0,0,0,0,0,-2.5208,-2.5224,-2.5341,-2.534,-2.5338,-2.5405,-2.5412,-2.5528,-2.5384,-2.5365,-2.5371,-2.5365,-2.5456,-2.5466,-2.5496,-2.5654,-2.5659,-2.5517,-2.5522,-2.5526,-2.5529,0,0,0,0,0,0,0,-2.5201,-2.5219,-2.5405,-2.5342,-2.5341,-2.5321,-2.533,-2.5434,-2.5439,-2.5367,-2.5361,-2.5373,-2.5454,-2.5488,-2.5498,-2.566,-2.5516,-2.5524,-2.553,-2.5533,-2.5956,-2.5961,0,0,0,0,0,0,-2.5196,-2.5213,-2.5402,-2.5408,-2.5259,-2.533,-2.534,-2.5389,-2.5438,-2.544,-2.5378,-2.5369,-2.5475,-2.5487,-2.5501,-2.5694,-2.5526,-2.5534,-2.554,-2.595,-2.5957,-2.5963,0,0,0,0,0,0,-2.5191,-2.5213,-2.5398,-2.5309,-2.5331,-2.534,-2.5395,-2.5394,-2.5427,-2.5446,-2.5447,-2.541,-2.5471,-2.5488,-2.5613,-2.5697,-2.5538,-2.5547,-2.5943,-2.5952,-2.596,-2.6081,0,0,0,0,0,0,-2.5184,-2.5212,-2.5273,-2.5311,-2.5336,-2.5508,-2.54,-2.5399,-2.5442,-2.5432,-2.5477,-2.548,-2.5468,-2.56,-2.5622,-2.5706,-2.5554,-2.5936,-2.5947,-2.5958,-2.607,-2.6093,-2.6113,0,0,0,0,0,-2.5175,-2.5304,-2.5277,-2.53,-2.5412,-2.5513,-2.5527,-2.5511,-2.5449,-2.5511,-2.5523,-2.5478,-2.5683,-2.5613,-2.5638,-2.5726,-2.5931,-2.5944,-2.5957,-2.606,-2.6088,-2.6112,0,0,0,0,0,0,-2.5277,-2.5308,-2.5279,-2.5424,-2.5466,-2.5498,-2.5576,-2.5541,-2.5603,-2.5591,-2.5568,-2.5579,-2.5711,-2.573,-2.5652,-2.5884,-2.5797,-2.5816,-2.5868,-2.5894,-2.5915,-2.5909,-2.5561,0,0,0,0,0,-2.5317,-2.5395,-2.5418,-2.5544,-2.5566,-2.5568,-2.5611,-2.5594,-2.5638,-2.5656,-2.5677,-2.5722,-2.5796,-2.5846,-2.5915,-2.6071,-2.608,-2.6143,-2.6165,-2.6182,-2.6199,-2.6284,-2.6313,-2.6006,-2.6006,-2.6006,0,0,-2.5399,-2.5426,-2.5477,-2.5565,-2.5596,-2.5679,-2.5584,-2.5675,-2.5736,-2.567,-2.5789,-2.5806,-2.5854,-2.5995,-2.6059,-2.6016,-2.6285,-2.6199,-2.6213,-2.622,-2.63,-2.6329,-2.6355,-2.6015,-2.6013,-2.6012,0,0,-2.5593,-2.562,-2.5728,-2.5761,-2.5808,-2.5808,-2.5834,-2.5871,-2.588,-2.5998,-2.595,-2.6022,-2.6151,-2.6187,-2.6223,-2.6428,-2.6389,-2.6451,-2.6564,-2.6647,-2.6671,-2.6692,-2.6767,-2.6794,-2.6467,-2.6468,-2.6468,0,-2.569,-2.5812,-2.5789,-2.5884,-2.5924,-2.5866,-2.5976,-2.6008,-2.6077,-2.6107,-2.6057,-2.6216,-2.6244,-2.6394,-2.6444,-2.6474,-2.6504,-2.6447,-2.6669,-2.669,-2.671,-2.6781,-2.6809,-2.6475,-2.6474,-2.6473,-2.6473,0,-2.593,-2.6015,-2.6097,-2.6163,-2.6212,-2.6315,-2.6308,-2.636,-2.6339,-2.6344,-2.6466,-2.6497,-2.6572,-2.6605,-2.6585,-2.6752,-2.6724,-2.6672,-2.6585,-2.6747,-2.6814,-2.6841,-2.6486,-2.6483,-2.6481,-2.6479,0,0,-2.6194,-2.6245,-2.6275,-2.6305,-2.6352,-2.6418,-2.6516,-2.6589,-2.6635,-2.6683,-2.6767,-2.6876,-2.6828,-2.6868,-2.6851,-2.6924,-2.7086,-2.6863,-2.6863,-2.6905,-2.7273,-2.7314,-2.7346,-2.7059,-2.7064,-2.7068,-2.7269,0,-2.6391,-2.6563,-2.6544,-2.6709,-2.6788,-2.6732,-2.6818,-2.6857,-2.6864,-2.6932,-2.6939,-2.7018,-2.6947,-2.6971,-2.704,-2.7052,-2.716,-2.7036,-2.7138,-2.7142,-2.7131,-2.738,-2.7424,-2.7613,-2.7295,-2.73,-2.7303,0,-2.6645,-2.6701,-2.6873,-2.6908,-2.694,-2.7018,-2.7083,-2.7148,-2.719,-2.719,-2.7234,-2.7204,-2.7304,-2.7212,-2.735,-2.7267,-2.7307,-2.7318,-2.7325,-2.7337,-2.7235,-2.7401,-2.7673,-2.7702,-2.7343,-2.734,-2.7337,0,-2.6823,-2.6941,-2.706,-2.7086,-2.7129,-2.7185,-2.7206,-2.7243,-2.7287,-2.7343,-2.7372,-2.7439,-2.7477,-2.753,-2.7519,-2.7453,-2.7661,-2.7567,-2.7665,-2.7666,-2.7714,-2.7712,-2.7999,-2.7736,-2.7735,-2.7735,-2.7734,0,-2.7047,-2.7155,-2.714,-2.7214,-2.7333,-2.731,-2.7429,-2.7442,-2.7475,-2.7551,-2.7506,-2.7577,-2.7558,-2.7629,-2.7621,-2.7737,-2.7754,-2.7758,-2.7755,-2.7763,-2.7763,-2.7792,-2.7779,-2.7742,-2.774,-2.7739,-2.7738,0,-2.7267,-2.7262,-2.7388,-2.7417,-2.7427,-2.7514,-2.7539,-2.7608,-2.761,-2.7706,-2.7727,-2.7731,-2.7812,-2.7805,-2.7897,-2.7891,-2.8036,-2.8016,-2.8022,-2.8019,-2.8118,-2.811,-2.8435,-2.8478,-2.8184,-2.8187,-2.819,0,-2.7412,-2.7494,-2.7531,-2.7578,-2.7602,-2.7678,-2.7723,-2.7702,-2.7751,-2.7804,-2.7867,-2.7944,-2.8005,-2.8137,-2.8148,-2.8218,-2.8201,-2.831,-2.8211,-2.8218,-2.8205,-2.8202,-2.821,-2.8331,-2.8334,-2.8337,-2.8339,0,-2.767,-2.7663,-2.7729,-2.7794,-2.7848,-2.7898,-2.7944,-2.7985,-2.7969,-2.8026,-2.8108,-2.8155,-2.8247,-2.8324,-2.839,-2.8411,-2.8374,-2.8369,-2.8396,-2.8407,-2.8408,-2.8411,-2.8078,-2.8363,-2.8361,-2.8359,-2.8358,-2.8357,-2.7859,-2.7929,-2.7966,-2.8041,-2.8073,-2.8116,-2.8183,-2.8192,-2.826,-2.8333,-2.8316,-2.8409,-2.8448,-2.8533,-2.856,-2.8633,-2.8594,-2.8632,-2.8642,-2.8653,-2.8665,-2.8394,-2.8644,-2.8644,-2.8643,-2.8642,-2.8642,0,-2.8117,-2.8137,-2.8206,-2.8271,-2.833,-2.8286,-2.8334,-2.8387,-2.8468,-2.8507,-2.8567,-2.8661,-2.8736,-2.8752,-2.8823,-2.8878,-2.8862,-2.8897,-2.8895,-2.89,-2.8695,-2.8666,-2.8909,-2.8909,-2.8909,-2.8909,-2.8909,-2.8908,-2.8258,-2.8375,-2.8372,-2.8504,-2.8523,-2.8613,-2.8644,-2.8684,-2.8715,-2.8822,-2.8883,-2.8892,-2.8923,-2.8995,-2.9061,-2.9064,-2.9094,-2.9136,-2.9133,-2.8941,-2.8915,-2.8889,-2.8862,-2.9142,-2.9143,-2.9332,-2.9334,-2.9335]},{"header":{"parameterUnit":"m.s-1","parameterCategory":1,"la1":30.2991,"la2":30.254,"lo1":-89.0895,"lo2":-89.0444,"dx":0.0017,"dy":0.0017,"nx":28,"ny":28,"refTime":"2022-11-21T15:00:00:Z","depth":0,"parameterNumber":3,"parameterNumberName":"V-component_of_WINDS"},"data":[0,0,0,0,0,0,0,0,0,0,0,0,0,0,0,0,0,0,0,0,0,0,0,0,0,0,0,0,0,0,0,0,0,0,0,0,0,0,0,0,0,0,0,0,0,0,0,0,0,0,0,0,0,0,0,0,0,0,-4.6973,-4.6974,0,-4.6983,-4.6983,-4.6983,-4.6918,-4.6916,-4.6914,-4.6912,-4.6921,-4.6923,-4.6925,0,0,0,0,0,0,0,0,0,0,0,0,0,-4.6897,-4.6899,-4.6973,-4.6974,-4.6974,-4.6983,-4.6983,-4.6983,-4.6918,-4.6916,-4.6913,-4.6911,-4.692,-4.6922,-4.6925,0,0,0,0,0,0,0,0,0,0,0,0,0,-4.6921,-4.69,-4.6973,-4.6942,-4.694,-4.6983,-4.6983,-4.6983,-4.6918,-4.6916,-4.6913,-4.691,-4.6919,-4.6922,-4.6925,-4.6998,0,0,-4.6934,-4.6935,0,0,0,0,0,0,0,0,-4.692,-4.6924,-4.6947,-4.6945,-4.6942,-4.6946,-4.6959,-4.6988,-4.6919,-4.6926,-4.6912,-4.6909,-4.6931,-4.6933,-4.6941,-4.6999,-4.6999,-4.6934,-4.6936,-4.6937,-4.6938,0,0,0,0,0,0,0,-4.6918,-4.6923,-4.6977,-4.6947,-4.6944,-4.6927,-4.6927,-4.6964,-4.6944,-4.6926,-4.6921,-4.6923,-4.6929,-4.6938,-4.6941,-4.6999,-4.6934,-4.6937,-4.6939,-4.694,-4.7115,-4.7118,0,0,0,0,0,0,-4.6921,-4.6922,-4.6977,-4.6977,-4.6924,-4.6931,-4.6931,-4.6947,-4.6944,-4.694,-4.6925,-4.692,-4.6935,-4.6937,-4.6941,-4.7025,-4.6937,-4.694,-4.6942,-4.7112,-4.7116,-4.7119,0,0,0,0,0,0,-4.692,-4.6926,-4.6976,-4.6948,-4.6954,-4.6935,-4.6954,-4.6949,-4.6958,-4.6943,-4.6939,-4.6938,-4.6933,-4.6937,-4.6984,-4.7024,-4.6941,-4.6944,-4.7109,-4.7113,-4.7118,-4.7194,0,0,0,0,0,0,-4.6918,-4.6926,-4.6955,-4.695,-4.6955,-4.702,-4.6956,-4.6951,-4.6963,-4.6956,-4.6954,-4.6951,-4.6931,-4.698,-4.6987,-4.7027,-4.6946,-4.7105,-4.7111,-4.7116,-4.7188,-4.72,-4.7211,0,0,0,0,0,-4.6915,-4.6976,-4.6956,-4.6963,-4.699,-4.7023,-4.7026,-4.7001,-4.6967,-4.6994,-4.6985,-4.6951,-4.7019,-4.6985,-4.6993,-4.7034,-4.7103,-4.7109,-4.7116,-4.7183,-4.7198,-4.7211,0,0,0,0,0,0,-4.6986,-4.6975,-4.6953,-4.7014,-4.702,-4.7012,-4.7046,-4.7019,-4.7034,-4.7027,-4.6995,-4.6996,-4.7048,-4.7046,-4.7009,-4.7103,-4.7054,-4.7063,-4.7103,-4.7117,-4.7129,-4.7128,-4.6949,0,0,0,0,0,-4.7009,-4.7037,-4.7025,-4.708,-4.7084,-4.7065,-4.7078,-4.7059,-4.7063,-4.7065,-4.7059,-4.7065,-4.7087,-4.7102,-4.7122,-4.7187,-4.7185,-4.7219,-4.7231,-4.7241,-4.7248,-4.7281,-4.7295,-4.7141,-4.7141,-4.714,0,0,-4.7057,-4.7054,-4.7073,-4.7095,-4.7097,-4.7125,-4.7068,-4.7101,-4.7121,-4.707,-4.7114,-4.711,-4.7114,-4.717,-4.7195,-4.717,-4.729,-4.7249,-4.7257,-4.7259,-4.7289,-4.7303,-4.7316,-4.7145,-4.7144,-4.7144,0,0,-4.7157,-4.7159,-4.7204,-4.7207,-4.7211,-4.7197,-4.7208,-4.7204,-4.7199,-4.7243,-4.7204,-4.7228,-4.7268,-4.7271,-4.7279,-4.7379,-4.7349,-4.7387,-4.7448,-4.748,-4.7492,-4.7503,-4.7537,-4.755,-4.7394,-4.7395,-4.7395,0,-4.7216,-4.7258,-4.7231,-4.7266,-4.7276,-4.723,-4.7275,-4.7279,-4.729,-4.7297,-4.7269,-4.7316,-4.7316,-4.7372,-4.7396,-4.7404,-4.7415,-4.7386,-4.7493,-4.7503,-4.7513,-4.7545,-4.7558,-4.7399,-4.7398,-4.7398,-4.7398,0,-4.7329,-4.7358,-4.7394,-4.7405,-4.7419,-4.7459,-4.7436,-4.7454,-4.7433,-4.7422,-4.7466,-4.7464,-4.7481,-4.7493,-4.7473,-4.7546,-4.753,-4.7498,-4.7448,-4.7532,-4.7562,-4.7575,-4.7405,-4.7404,-4.7402,-4.7401,0,0,-4.7475,-4.7469,-4.7482,-4.7486,-4.7486,-4.7508,-4.7545,-4.7562,-4.7577,-4.7586,-4.7615,-4.7649,-4.7619,-4.7627,-4.7607,-4.7636,-4.7714,-4.76,-4.7599,-4.762,-4.7792,-4.7815,-4.783,-4.7694,-4.7696,-4.7698,-4.7791,0,-4.7572,-4.7635,-4.7611,-4.7676,-4.7702,-4.7659,-4.7691,-4.7695,-4.7685,-4.7705,-4.7695,-4.7719,-4.7678,-4.7682,-4.7709,-4.7699,-4.7747,-4.7692,-4.772,-4.7721,-4.7719,-4.7846,-4.7871,-4.7959,-4.7803,-4.7805,-4.7806,0,-4.7694,-4.7706,-4.7774,-4.7768,-4.7778,-4.7808,-4.782,-4.7841,-4.7843,-4.7834,-4.7843,-4.7816,-4.7851,-4.7802,-4.785,-4.7812,-4.7822,-4.7819,-4.7822,-4.7822,-4.7768,-4.7849,-4.7986,-4.7999,-4.7824,-4.7823,-4.7822,0,-4.7792,-4.7826,-4.787,-4.7874,-4.7869,-4.789,-4.7889,-4.7889,-4.79,-4.7911,-4.7918,-4.7934,-4.7942,-4.7954,-4.7932,-4.7899,-4.7982,-4.7932,-4.7975,-4.7975,-4.7993,-4.7992,-4.8133,-4.8002,-4.8002,-4.8002,-4.8002,0,-4.7902,-4.7945,-4.7914,-4.7941,-4.7987,-4.7958,-4.8004,-4.7998,-4.7998,-4.8022,-4.7986,-4.801,-4.798,-4.8001,-4.7984,-4.8025,-4.8029,-4.8022,-4.8017,-4.8024,-4.8025,-4.803,-4.8023,-4.8005,-4.8005,-4.8004,-4.8003,0,-4.8019,-4.8,-4.8045,-4.8036,-4.8035,-4.8069,-4.806,-4.8085,-4.8072,-4.8104,-4.811,-4.809,-4.8113,-4.8092,-4.8114,-4.8102,-4.8156,-4.8143,-4.8155,-4.8151,-4.8195,-4.819,-4.8343,-4.836,-4.822,-4.8221,-4.8222,0,-4.809,-4.8122,-4.8116,-4.8129,-4.813,-4.8153,-4.8164,-4.8137,-4.8149,-4.8154,-4.8177,-4.8196,-4.821,-4.8248,-4.8235,-4.8251,-4.8237,-4.8289,-4.8239,-4.8246,-4.8236,-4.8234,-4.8236,-4.8299,-4.8301,-4.8302,-4.8303,0,-4.8218,-4.8206,-4.8224,-4.8237,-4.8251,-4.8261,-4.8268,-4.8281,-4.8253,-4.8269,-4.8291,-4.8302,-4.8323,-4.8342,-4.8354,-4.8352,-4.8323,-4.8319,-4.833,-4.8337,-4.8343,-4.8339,-4.8182,-4.8316,-4.8315,-4.8314,-4.8313,-4.8312,-4.8313,-4.8338,-4.8337,-4.8357,-4.8359,-4.8366,-4.8388,-4.8378,-4.8396,-4.841,-4.8393,-4.842,-4.842,-4.8433,-4.8435,-4.8455,-4.8433,-4.8448,-4.8452,-4.8456,-4.8462,-4.8341,-4.8457,-4.8457,-4.8456,-4.8456,-4.8456,0,-4.8437,-4.8434,-4.8453,-4.8463,-4.8478,-4.8449,-4.8455,-4.8469,-4.8493,-4.8496,-4.851,-4.8535,-4.8553,-4.8542,-4.8557,-4.8575,-4.8562,-4.858,-4.8577,-4.8577,-4.8481,-4.847,-4.859,-4.859,-4.859,-4.859,-4.859,-4.859,-4.8504,-4.8544,-4.8532,-4.8573,-4.857,-4.8595,-4.86,-4.8606,-4.8608,-4.8637,-4.8651,-4.8644,-4.8641,-4.8655,-4.867,-4.8666,-4.8673,-4.8696,-4.8687,-4.8597,-4.8584,-4.8572,-4.8561,-4.8698,-4.8698,-4.8781,-4.8782,-4.8782]}]]